Terminal Aerodrome Forecast
Issued by NWS Rapid City, SD

Home | Current Version | Previous Version | Text Only | Print | Product List | Glossary On
Versions: 1 2 3 4 5 6 7 8 9 10 11 12 13 14 15 16 17 18 19 20 21 22 23 24
259
FTUS43 KUNR 102322
TAFRAP
TAF
KRAP 102322Z 1100/1124 10006KT 5SM -SN OVC008
     FM110800 35015KT P6SM -SN OVC015
     FM111600 34012KT P6SM BKN080=

USA.gov is the U.S. government's official web portal to all federal, state and local government web resources and services.